Home > Weather > Arnstadt > Past weeks

Flag for Germany Past Weather in Arnstadt, Thuringia, Germany — Yesterday and Last 2 Weeks

Now
50 °F

Broken clouds.


Feels Like: 46 °F
Forecast: 48 / 65 °F
Wind: 9 mph from Northwest

Location: Erfurt-Bindersleben

Current Time: May 24, 2016 at 7:42:31 PM

Latest Report: May 24, 2016 at 7:20 PM


Visibility: N/A

Pressure: 29.92 "Hg

Humidity: 94%

Dew Point: 48 °F

Location of ArnstadtLocation

Past Weather in Arnstadt — Graph

°F

Arnstadt Temperature Yesterday

Maximum temperature yesterday: 63 °F (at 12:20 AM)
Minimum temperature yesterday: 54 °F (at 5:50 AM)
Average temperature yesterday: 58 °F

High & Low Weather Summary for the Past Weeks

 TemperatureHumidityPressure
High82 °F (May 22, 2:20 PM)94% (May 13, 4:50 AM)30.09 "Hg (May 13, 4:50 AM)
Low36 °F (May 15, 3:20 AM)25% (May 22, 2:50 PM)29.50 "Hg (May 12, 4:50 PM)
Average56 °F66%29.87 "Hg
* Reported May 9 6:20 PM — May 24 6:20 PM, Arnstadt, Weather by CustomWeather, © 2016

Note: Actual official high and low records may vary slightly from our data, if they occured in-between our weather recording intervals... More about our weather records

Advertising

Arnstadt Weather History for the Previous 24 Hours

Scroll right to see more
 ConditionsComfort  
Time TempWeatherWind HumidityBarometerVisibility
6:20 PM
Tue, May 24
50 °FLow clouds.8 mph94%29.92 "HgN/A
5:50 PM50 °FLow clouds.9 mph94%29.92 "HgN/A
5:20 PM50 °FBroken clouds.10 mph94%29.92 "HgN/A
4:50 PM52 °FBroken clouds.10 mph88%29.92 "HgN/A
4:20 PM50 °FBroken clouds.14 mph94%29.92 "HgN/A
3:50 PM50 °FBroken clouds.13 mph94%29.92 "HgN/A
3:20 PM52 °FBroken clouds.10 mph88%29.92 "HgN/A
2:50 PM52 °FBroken clouds.10 mph88%29.92 "HgN/A
2:20 PM52 °FBroken clouds.12 mph88%29.92 "HgN/A
1:50 PM52 °FBroken clouds.14 mph88%29.89 "HgN/A
1:20 PM52 °FPartly sunny.13 mph88%29.89 "HgN/A
12:50 PM52 °FLow clouds.14 mph94%29.89 "HgN/A
12:20 PM52 °FLow clouds.12 mph88%29.89 "HgN/A
11:50 AM52 °FLow clouds.13 mph94%29.89 "HgN/A
11:20 AM52 °FLight rain. Low clouds.10 mph94%29.89 "HgN/A
10:50 AM52 °FLight rain. More clouds than sun.10 mph94%29.89 "Hg5 mi
10:20 AM52 °FLight rain. More clouds than sun.15 mph94%29.86 "Hg5 mi
9:50 AM52 °FLight rain. Fog.13 mph94%29.86 "Hg2 mi
9:20 AM52 °FLight rain. More clouds than sun.15 mph94%29.86 "Hg4 mi
8:50 AM52 °FLight rain. Low clouds.15 mph94%29.86 "Hg4 mi
8:20 AM52 °FLight rain. Mostly cloudy.17 mph94%29.86 "Hg5 mi
7:50 AM52 °FLight rain. Low clouds.17 mph94%29.83 "HgN/A
7:20 AM52 °FLight rain. Low clouds.16 mph94%29.83 "HgN/A
6:50 AM54 °FLow clouds.17 mph94%29.83 "Hg6 mi
6:20 AM54 °FLow clouds.14 mph94%29.83 "Hg4 mi
5:50 AM54 °FLight rain. Fog.12 mph94%29.83 "Hg2 mi
5:20 AM54 °FLight rain. Fog.12 mph94%29.83 "Hg3 mi
4:50 AM54 °FLight rain. Low clouds.12 mph94%29.83 "Hg4 mi
4:20 AM54 °FLight rain. Low clouds.12 mph94%29.83 "HgN/A
3:50 AM54 °FLight rain. Overcast.13 mph94%29.83 "HgN/A
3:20 AM54 °FLight rain. Passing clouds.15 mph94%29.80 "HgN/A
2:50 AM54 °FLight rain. Passing clouds.13 mph94%29.83 "HgN/A
2:20 AM54 °FLight rain. Passing clouds.15 mph94%29.80 "HgN/A
1:50 AM54 °FLight rain. Passing clouds.15 mph94%29.83 "HgN/A
1:20 AM54 °FLight rain. Passing clouds.14 mph88%29.83 "HgN/A
12:50 AM54 °FPassing clouds.14 mph88%29.83 "HgN/A
12:20 AM54 °FLight rain. Overcast.14 mph88%29.83 "HgN/A
11:50 PM
Mon, May 23
54 °FLight rain. Overcast.13 mph88%29.83 "HgN/A
11:20 PM54 °FLight rain. Passing clouds.13 mph94%29.83 "HgN/A
10:50 PM54 °FLight rain. Passing clouds.13 mph88%29.83 "HgN/A
10:20 PM54 °FLight rain. Passing clouds.13 mph88%29.83 "HgN/A
9:50 PM54 °FLight rain. Partly sunny.13 mph94%29.83 "HgN/A
9:20 PM55 °FRain. Partly sunny.7 mph94%29.86 "Hg4 mi
8:50 PM55 °FRain showers. Partly sunny.9 mph94%29.83 "Hg2 mi
8:20 PM55 °FRain showers. Partly sunny.6 mph94%29.86 "Hg2 mi
7:50 PM57 °FThunderstorms. Partly sunny.3 mph88%29.86 "HgN/A
7:20 PM59 °FThunderstorms. Scattered clouds.7 mph77%29.83 "HgN/A
Weather by CustomWeather, © 2016

See weather overviewHow to use our weather pages